Weather History for KVCB - October, 2014

Change the Weather History Date:

Tuesday, October 14, 2014

  Actual Average Record
Temperature  
Mean Temperature 68 °F -  
Max Temperature 72 °F 79 °F 99 °F (1991)
Min Temperature 64 °F 48 °F 38 °F (1973)
Cooling Degree Days 2    
Growing Degree Days 18 (Base 50)    
Moisture  
Dew Point 51 °F    
Average Humidity 56    
Maximum Humidity 75    
Minimum Humidity 38    
Precipitation  
Precipitation 0.00 in - - ()
Sea Level Pressure  
Sea Level Pressure 29.85 in    
Wind  
Wind Speed 12 mph (SW)    
Max Wind Speed 26 mph    
Max Gust Speed 38 mph    
Visibility 10 miles    
Events      
Averages and records for this station are not official NWS values.
T = Trace of Precipitation, MM = Missing Value Source: NWS Daily Summary

Daily Weather History Graph

Daily Weather History Graph

Search for Another Location

Airport or City:

Trip Planner

Search our weather history database for the weather conditions in past years. The results will help you decide how hot, cold, wet, or windy it might be!

Date:

Astronomy

Oct. 14, 2014 Rise Set
Actual Time 7:15 AM PDT 6:31 PM PDT
Civil Twilight 6:49 AM PDT 6:57 PM PDT
Nautical Twilight 6:18 AM PDT 7:28 PM PDT
Astronomical Twilight 5:47 AM PDT 7:58 PM PDT
Moon 11:43 PM PDT (10/14) 1:18 PM PDT (10/14)
Length of Visible Light 12h 08m
Length of Day
11h 15m
Waning Gibbous, 60% of the Moon is Illuminated
Oct 14
Waning Gibbous
Oct 15
Last Quarter
Oct 23
New
Oct 30
First Quarter
Nov 6
Full

Hourly Weather History & Observations

Time (PDT) Temp. Dew Point Humidity Pressure Visibility Wind Dir Wind Speed Gust Speed Precip Events Conditions
12:53 AM 69.1 °F 45.0 °F 42% 29.89 in 10.0 mi SSW 9.2 mph - N/A   Clear
1:53 AM 70.0 °F 43.0 °F 38% 29.89 in 10.0 mi SW 15.0 mph - N/A   Clear
2:53 AM 66.9 °F 46.0 °F 47% 29.89 in 10.0 mi SSW 12.7 mph - N/A   Clear
3:53 AM 66.9 °F 45.0 °F 45% 29.88 in 10.0 mi SSW 6.9 mph - N/A   Clear
4:53 AM 64.9 °F 46.9 °F 52% 29.88 in 10.0 mi SSW 11.5 mph 18.4 mph N/A   Clear
5:53 AM 64.0 °F 48.0 °F 56% 29.86 in 10.0 mi SW 11.5 mph - N/A   Clear
6:53 AM 66.0 °F 48.0 °F 52% 29.85 in 10.0 mi South 6.9 mph - N/A   Clear
7:53 AM 66.9 °F 46.9 °F 49% 29.84 in 10.0 mi Variable 4.6 mph - N/A   Clear
8:53 AM 71.1 °F 48.0 °F 44% 29.85 in 10.0 mi WSW 9.2 mph - N/A   Clear
9:53 AM 70.0 °F 50.0 °F 49% 29.86 in 10.0 mi WSW 17.3 mph 23.0 mph N/A   Clear
10:53 AM 71.1 °F 52.0 °F 51% 29.87 in 10.0 mi SW 13.8 mph 20.7 mph N/A   Clear
11:53 AM 69.1 °F 53.1 °F 57% 29.88 in 10.0 mi SW 26.5 mph 34.5 mph N/A   Clear
12:53 PM 71.1 °F 53.1 °F 53% 29.84 in 10.0 mi WSW 24.2 mph 38.0 mph N/A   Clear
1:53 PM 71.1 °F 53.1 °F 53% 29.82 in 10.0 mi SW 18.4 mph 31.1 mph N/A   Clear
2:53 PM 71.1 °F 53.1 °F 53% 29.82 in 10.0 mi WSW 17.3 mph 33.4 mph N/A   Clear
3:53 PM 69.1 °F 53.1 °F 57% 29.81 in 10.0 mi SW 16.1 mph 26.5 mph N/A   Clear
4:53 PM 68.0 °F 53.1 °F 59% 29.81 in 10.0 mi SW 16.1 mph 29.9 mph N/A   Clear
5:53 PM 66.9 °F 54.0 °F 63% 29.82 in 10.0 mi North - - N/A   Partly Cloudy
6:53 PM 66.0 °F 54.0 °F 65% 29.83 in 10.0 mi Variable 6.9 mph 16.1 mph N/A   Clear
7:53 PM 64.9 °F 54.0 °F 68% 29.84 in 10.0 mi South 9.2 mph - N/A   Clear
8:53 PM 66.0 °F 55.0 °F 68% 29.84 in 10.0 mi SW 17.3 mph 24.2 mph N/A   Partly Cloudy
9:53 PM 64.9 °F 55.0 °F 70% 29.85 in 10.0 mi SW 13.8 mph 19.6 mph N/A   Clear
10:53 PM 64.9 °F 55.0 °F 70% 29.86 in 10.0 mi SW 15.0 mph - N/A   Partly Cloudy
11:53 PM 64.0 °F 55.9 °F 75% 29.86 in 10.0 mi Variable 6.9 mph - N/A   Partly Cloudy